{"data":{"norad_id":62444,"epoch":"2026-09-21T20:46:25.915872Z","epoch_age_seconds":56550,"freshness":"FRESH","line1":"1 62444U 24251N   26264.86557773  .00014281  00000+0  43304-3 0  9994","line2":"2 62444  53.1579 139.1297 0001475  89.0496 271.0675 15.34397619 98055","mean_motion":15.34397619,"eccentricity":0.0001475,"inclination_deg":53.1579,"raan_deg":139.1297,"arg_perigee_deg":89.0496,"mean_anomaly_deg":271.0675,"bstar":0.00043304,"rev_number":9805,"period_min":93.847903709501,"perigee_km":461.70129207076,"apogee_km":463.71934202929,"semimajor_km":6840.84731705,"source":"CELESTRAK","updated_at":"2026-09-22T09:00:49.582373Z"}}